Regional Weather Roundup
Issued by NWS

Home | Current Version | Previous Version | Graphics & Text | Print | Product List | Glossary On
Versions: 1 2 3 4 5 6 7 8 9 10 11 12 13 14 15 16 17 18 19 20 21 22 23 24 25 26 27 28 29 30 31 32 33 34 35 36 37 38 39 40 41 42 43 44 45 46 47 48 49 50
000
ASUS45 KPSR 200700
RWRAZ

PRELIMINARY ARIZONA REGIONAL HOURLY WEATHER ROUNDUP
NATIONAL WEATHER SERVICE PHOENIX AZ
1200 AM MST MON OCT 20 2014

NOTE: FAIR INDICATES FEW OR NO CLOUDS BELOW 12,000 FEET WITH NO
SIGNIFICANT WEATHER AND/OR OBSTRUCTIONS TO VISIBILITY.

AZZ001>003-036-200800-
NORTHWEST ARIZONA

CITY           SKY/WX    TMP DP  RH WIND       PRES   REMARKS
KINGMAN        CLEAR     56  43  61 E5        29.97S
$$

AZZ004>008-015-016-018-200800-
NORTH CENTRAL ARIZONA

CITY           SKY/WX    TMP DP  RH WIND       PRES   REMARKS
GRAND CANYON   CLEAR     42  35  76 CALM      30.17F
PRESCOTT       CLEAR     53  43  68 SW6       30.07R
FLAGSTAFF      CLEAR     38  34  85 CALM      30.18S
PAYSON         PTCLDY    54  43  66 CALM      30.11F
$$

AZZ009>014-017-200800-
NORTHEAST ARIZONA

CITY           SKY/WX    TMP DP  RH WIND       PRES   REMARKS
WINSLOW        NOT AVBL
SAINT JOHNS    CLEAR     43  41  93 CALM      30.13S
$$

AZZ023-200800-
GREATER PHOENIX AREA

CITY           SKY/WX    TMP DP  RH WIND       PRES   REMARKS
PHOENIX        CLOUDY    70  58  65 E6        29.85F
DEER VALLEY    MOCLDY    68  54  60 E3        29.88S
SCOTTSDALE     MOCLDY    72  50  45 CALM      29.89F
MESA-GATEWAY   CLEAR     66  52  59 E6        29.90S
$$

AZZ027-028-200800-
SOUTHWEST MARICOPA COUNTY AND PINAL COUNTY

CITY           SKY/WX    TMP DP  RH WIND       PRES   REMARKS
CASA GRANDE    MOCLDY    70  48  46 E8        29.88F
$$

AZZ503-504-507>509-200800-
SOUTHEAST ARIZONA

CITY           SKY/WX    TMP DP  RH WIND       PRES   REMARKS
TUCSON         PTCLDY    65  50  58 E6        29.95F
NOGALES        PTCLDY    56  47  71 CALM      29.99S
SIERRA VISTA   CLEAR     55  46  71 CALM      30.06R
SAFFORD        MOCLDY    58  52  80 SE9       30.04S
$$

AZZ020-021-025-026-031-200800-
SOUTHWEST ARIZONA

CITY           SKY/WX    TMP DP  RH WIND       PRES   REMARKS
YUMA           NOT AVBL
$$

CAZ031-033-041-043-047-048-061-200800-
SOUTHERN CALIFORNIA

CITY           SKY/WX    TMP DP  RH WIND       PRES   REMARKS
DOWNTOWN L.A.  PTCLDY    67  61  81 W3        29.88R
L.A. AIRPORT   MOCLDY    67  62  84 W8        29.89R
SAN DIEGO      PTCLDY    68  61  78 CALM      29.90S
BURBANK        PTCLDY    65  60  84 E5        29.89R HAZE
ONTARIO        CLEAR     65  59  81 CALM      29.90R
RIVERSIDE      CLEAR     65  58  78 CALM      29.91R
PALM SPRINGS   CLEAR     75  53  46 S3        29.82R
EL CENTRO NAS  CLEAR     74  46  36 SW6       29.77R
IMPERIAL       CLEAR     72  51  47 CALM      29.76R
BLYTHE         CLEAR     73  46  38 NW3       29.77S
$$

NVZ020-UTZ003-200800-
SOUTHERN NEVADA-UTAH

CITY           SKY/WX    TMP DP  RH WIND       PRES   REMARKS
LAS VEGAS      NOT AVBL
SALT LAKE CITY CLEAR     52  40  63 SE9       30.03F
$$

NMZ009-TXZ055-200800-
NEW MEXICO-WEST TEXAS

CITY           SKY/WX    TMP DP  RH WIND       PRES   REMARKS
ALBUQUERQUE    PTCLDY    51  40  65 CALM      30.17R
EL PASO        CLOUDY    60  55  83 N7        30.09F
$$


........................KEY........................
SKY/WX - SKY CONDITION/WEATHER
TMP    - TEMPERATURE IN FAHRENHEIT
DP     - DEW POINT IN FAHRENHEIT
RH     - RELATIVE HUMIDITY IN PERCENT
WIND   - DIRECTION AND SPEED IN MILES PER HOUR (MPH)
VRB    - VARIABLE WIND DIRECTION
PRES   - MEAN SEA LEVEL PRESSURE IN INCHES OF MERCURY
         F - FALLING PRESSURE   R - RISING PRESSURE
         S - STEADY PRESSURE
VSB    - VISIBILITY IN MILES
HX     - HEAT INDEX IN FAHRENHEIT
WCI    - WIND CHILL INDEX IN FAHRENHEIT
TC     - TEMPERATURE IN CELSIUS WHICH IS ALSO KNOWN AS
         TEMPERATURE IN CENTIGRADE
AFB    - AIR FORCE BASE
         LUKE AFB IS LUKE AIR FORCE BASE
         DAVIS-MONTHAN IS DAVIS-MONTHAN AIR FORCE BASE
NAS    - NAVAL AIR STATION
         EL CENTRO NAS IS EL CENTRO NAVAL AIR STATION
N/A    - NOT AVAILABLE



USA.gov is the U.S. government's official web portal to all federal, state and local government web resources and services.